CW5316 Weather Reports


Display with metric or nautical units.
time (UTC)temp
F
wind
direction
speed
MPH
gust
MPH
rain 1hr
in
rain 24hr
in
rain mn
in
humidity
%
barometer
mb
20260510124547 47 0 0.0 1.0 0.00 0.00 0.00 94 1017.4
20260510124022 47 0 0.0 1.0 0.00 0.00 0.00 94 1017.4
20260510123523 47 0 0.0 0.0 0.00 0.00 0.00 94 1017.3
20260510123038 47 0 0.0 0.0 0.00 0.00 0.00 93 1017.3
20260510122520 47 0 0.0 1.0 0.00 0.00 0.00 93 1017.4
20260510122020 47 0 0.0 1.0 0.00 0.00 0.00 93 1017.3
20260510121538 47 0 0.0 1.0 0.00 0.00 0.00 93 1017.3
20260510121022 47 110 0.0 1.0 0.00 0.00 0.00 93 1017.4
20260510120522 48 0 0.0 0.0 0.00 0.00 0.00 93 1017.2
20260510120034 48 0 0.0 1.0 0.00 0.00 0.00 93 1017.4
20260510115523 48 0 0.0 2.0 0.00 0.00 0.00 93 1017.4
20260510115024 48 0 0.0 2.0 0.00 0.00 0.00 94 1017.6
20260510114539 48 0 0.0 2.0 0.00 0.00 0.00 94 1017.7
20260510114020 48 110 0.0 2.0 0.00 0.00 0.00 94 1017.5
20260510113521 47 0 0.0 1.0 0.00 0.00 0.00 93 1017.6
20260510113041 48 0 0.0 0.0 0.00 0.00 0.00 93 1017.5
20260510112521 48 0 0.0 0.0 0.00 0.00 0.00 93 1017.4
20260510112021 48 0 0.0 0.0 0.00 0.00 0.00 93 1017.4
20260510111548 48 0 0.0 0.0 0.00 0.00 0.00 92 1017.3
20260510111020 48 0 0.0 0.0 0.00 0.00 0.00 92 1017.3
20260510110521 48 0 0.0 0.0 0.00 0.00 0.00 92 1017.3
20260510110039 48 0 0.0 0.0 0.00 0.00 0.00 92 1017.2
20260510105519 48 0 0.0 1.0 0.00 0.00 0.00 92 1017.1
20260510105021 48 0 0.0 1.0 0.00 0.00 0.00 92 1017.1
20260510104545 49 0 0.0 0.0 0.00 0.00 0.00 92 1017.1
20260510104021 49 0 0.0 0.0 0.00 0.00 0.00 91 1017.2
20260510103519 49 0 0.0 0.0 0.00 0.00 0.00 91 1017.1
20260510103047 49 0 0.0 0.0 0.00 0.00 0.00 90 1017.1
20260510102519 50 0 0.0 1.0 0.00 0.00 0.00 91 1017.0
20260510102023 50 0 0.0 1.0 0.00 0.00 0.00 91 1016.9
20260510101539 50 0 0.0 1.0 0.00 0.00 0.00 91 1016.7
20260510101020 50 0 0.0 1.0 0.00 0.00 0.00 90 1016.6
20260510100521 50 0 0.0 1.0 0.00 0.00 0.00 90 1016.5
20260510100038 50 0 0.0 3.0 0.00 0.00 0.00 90 1016.4
20260510095520 50 0 0.0 3.0 0.00 0.00 0.00 90 1016.4
20260510095020 51 0 1.0 3.0 0.00 0.00 0.00 90 1016.3
20260510094538 51 115 1.0 3.0 0.00 0.00 0.00 90 1016.3
20260510094020 51 109 1.0 3.0 0.00 0.00 0.00 89 1016.2
20260510093519 51 128 1.0 2.0 0.00 0.00 0.00 89 1016.2
20260510093041 51 142 0.0 1.0 0.00 0.00 0.00 88 1016.3
20260510092521 52 0 0.0 2.0 0.00 0.00 0.00 87 1016.1
20260510092019 52 0 0.0 2.0 0.00 0.00 0.00 86 1016.1
20260510091544 52 0 0.0 4.0 0.00 0.00 0.00 86 1016.2
20260510091021 52 0 1.0 4.0 0.00 0.00 0.00 86 1016.2
20260510090521 52 0 0.0 2.0 0.00 0.00 0.00 87 1016.3
20260510090045 52 0 0.0 1.0 0.00 0.00 0.00 87 1016.3
20260510085522 52 0 0.0 4.0 0.00 0.00 0.00 87 1016.3
20260510085020 52 223 1.0 4.0 0.00 0.00 0.00 87 1016.3
20260510084539 52 219 0.0 2.0 0.00 0.00 0.00 88 1016.3
20260510084023 52 0 0.0 2.0 0.00 0.00 0.00 89 1016.3
20260510083525 52 0 1.0 2.0 0.00 0.00 0.00 89 1016.4
20260510083045 51 266 1.0 2.0 0.00 0.00 0.00 89 1016.4
20260510082522 51 0 0.0 2.0 0.00 0.00 0.00 90 1016.5
20260510082020 51 0 0.0 2.0 0.00 0.00 0.00 89 1016.7
20260510081606 51 0 0.0 1.0 0.00 0.00 0.00 90 1016.8
20260510081025 51 0 0.0 0.0 0.00 0.00 0.00 90 1016.8
20260510080522 51 0 0.0 0.0 0.00 0.00 0.00 90 1016.7
20260510080040 51 0 0.0 0.0 0.00 0.00 0.00 89 1016.7
20260510075520 51 0 0.0 0.0 0.00 0.00 0.00 89 1016.7
20260510075022 51 0 0.0 0.0 0.00 0.00 0.00 90 1016.8
20260510074545 51 0 0.0 0.0 0.00 0.00 0.00 89 1016.8
20260510074024 51 0 0.0 0.0 0.00 0.00 0.00 89 1016.9
20260510073521 51 0 0.0 0.0 0.00 0.00 0.00 89 1017.0
20260510073051 51 0 0.0 0.0 0.00 0.00 0.00 89 1016.9
20260510072526 51 0 0.0 0.0 0.00 0.00 0.00 88 1017.0
20260510072020 52 0 0.0 0.0 0.00 0.00 0.00 88 1016.9
20260510071539 52 0 0.0 0.0 0.00 0.00 0.00 89 1016.8
20260510071020 52 0 0.0 0.0 0.00 0.00 0.00 88 1016.8
20260510070519 52 0 0.0 0.0 0.00 0.00 0.00 88 1016.7
20260510070039 52 0 0.0 0.0 0.00 0.00 0.00 88 1016.7
20260510065521 52 0 0.0 0.0 0.00 0.00 0.00 88 1016.7
20260510065026 52 0 0.0 0.0 0.00 0.00 0.00 87 1016.8
20260510064552 53 0 0.0 0.0 0.00 0.00 0.00 86 1016.7
20260510064020 53 0 0.0 0.0 0.00 0.00 0.00 86 1016.7
20260510063521 53 0 0.0 1.0 0.00 0.00 0.00 85 1016.8
20260510063043 54 0 0.0 2.0 0.00 0.00 0.00 84 1016.7
20260510062522 54 0 0.0 2.0 0.00 0.00 0.00 83 1016.7
20260510062022 55 0 0.0 4.0 0.00 0.00 0.00 83 1016.7
20260510061545 55 0 0.0 4.0 0.00 0.00 0.00 82 1016.6
20260510061020 55 0 0.0 7.0 0.00 0.00 0.00 82 1016.6
20260510060523 55 0 1.0 7.0 0.00 0.00 0.00 82 1016.6
20260510060047 55 111 2.0 7.0 0.00 0.00 0.00 82 1016.6
20260510055519 55 127 1.0 3.0 0.00 0.00 0.00 83 1016.5
20260510055022 55 115 0.0 3.0 0.00 0.00 0.00 83 1016.5
20260510054537 55 131 0.0 2.0 0.00 0.00 0.00 82 1016.5
20260510054024 56 190 0.0 2.0 0.00 0.00 0.00 80 1016.4
20260510053520 56 0 0.0 2.0 0.00 0.00 0.00 80 1016.3
20260510053057 56 0 0.0 2.0 0.00 0.00 0.00 80 1016.4
20260510052521 56 0 0.0 0.0 0.00 0.00 0.00 81 1016.5
20260510052022 56 0 0.0 0.0 0.00 0.00 0.00 80 1016.6
20260510051543 55 0 0.0 0.0 0.00 0.00 0.00 81 1016.6
20260510051024 55 0 0.0 0.0 0.00 0.00 0.00 81 1016.6
20260510050519 55 0 0.0 0.0 0.00 0.00 0.00 82 1016.5
20260510050040 55 0 0.0 0.0 0.00 0.00 0.00 81 1016.4
20260510045520 56 0 0.0 1.0 0.00 0.00 0.00 80 1016.3
20260510045021 56 0 0.0 1.0 0.00 0.00 0.00 80 1016.5
20260510044553 56 0 0.0 0.0 0.00 0.00 0.00 81 1016.5
20260510044020 56 0 0.0 0.0 0.00 0.00 0.00 80 1016.5
20260510043519 56 0 0.0 0.0 0.00 0.00 0.00 80 1016.5
20260510043042 56 0 0.0 0.0 0.00 0.00 0.00 81 1016.7
20260510042521 56 0 0.0 0.0 0.00 0.00 0.00 81 1016.7
20260510042020 56 0 0.0 1.0 0.00 0.00 0.00 80 1016.7
20260510041538 57 0 0.0 1.0 0.00 0.00 0.00 78 1016.7
20260510041019 57 0 0.0 0.0 0.00 0.00 0.00 78 1016.6
20260510040527 57 0 0.0 0.0 0.00 0.00 0.00 78 1016.5
20260510040044 58 0 0.0 0.0 0.00 0.00 0.00 78 1016.6
20260510035521 58 0 0.0 0.0 0.00 0.00 0.00 77 1016.6
20260510035023 58 0 0.0 0.0 0.00 0.00 0.00 76 1016.6
20260510034540 58 0 0.0 0.0 0.00 0.00 0.00 75 1016.6
20260510034020 58 0 0.0 0.0 0.00 0.00 0.00 75 1016.7
20260510033522 58 0 0.0 0.0 0.00 0.00 0.00 76 1016.7
20260510033054 59 0 0.0 0.0 0.00 0.00 0.00 74 1016.8
20260510032522 59 0 0.0 0.0 0.00 0.00 0.00 73 1016.8
20260510032025 59 0 0.0 0.0 0.00 0.00 0.00 71 1016.9
20260510031538 60 0 0.0 0.0 0.00 0.00 0.00 69 1016.9
20260510031020 61 0 0.0 0.0 0.00 0.00 0.00 68 1016.7
20260510030528 61 0 0.0 0.0 0.00 0.00 0.00 68 1016.6
20260510030046 61 0 0.0 0.0 0.00 0.00 0.00 68 1016.7
20260510025519 61 0 0.0 0.0 0.00 0.00 0.00 67 1016.7
20260510025023 61 0 0.0 0.0 0.00 0.00 0.00 67 1016.7
20260510024540 62 0 0.0 0.0 0.00 0.00 0.00 66 1016.7
20260510024019 62 0 0.0 0.0 0.00 0.00 0.00 67 1016.7
20260510023519 62 0 0.0 0.0 0.00 0.00 0.00 66 1016.7
20260510023038 63 0 0.0 0.0 0.00 0.00 0.00 67 1016.7
20260510022521 63 0 0.0 0.0 0.00 0.00 0.00 66 1017.0
20260510022020 63 0 0.0 1.0 0.00 0.00 0.00 66 1016.9
20260510021537 64 0 0.0 1.0 0.00 0.00 0.00 65 1017.0
20260510021019 64 0 0.0 0.0 0.00 0.00 0.00 67 1017.0
20260510020519 64 0 0.0 0.0 0.00 0.00 0.00 66 1017.0
20260510020035 64 0 0.0 0.0 0.00 0.00 0.00 65 1017.0
20260510015520 64 0 0.0 1.0 0.00 0.00 0.00 65 1017.0
20260510015024 65 0 0.0 2.0 0.00 0.00 0.00 64 1017.1
20260510014542 65 0 0.0 3.0 0.00 0.00 0.00 64 1017.1
20260510014019 65 0 0.0 3.0 0.00 0.00 0.00 64 1017.0
20260510013519 65 0 0.0 3.0 0.00 0.00 0.00 63 1017.2
20260510013040 65 0 0.0 3.0 0.00 0.00 0.00 62 1017.1
20260510012519 65 0 0.0 1.0 0.00 0.00 0.00 62 1017.1
20260510012022 65 0 0.0 3.0 0.00 0.00 0.00 62 1017.2
20260510011539 65 0 0.0 3.0 0.00 0.00 0.00 62 1017.3
20260510011020 65 63 0.0 4.0 0.00 0.00 0.00 60 1017.2
20260510010521 66 121 1.0 4.0 0.00 0.00 0.00 60 1017.3
20260510010038 66 0 0.0 1.0 0.00 0.00 0.00 61 1017.4
20260510005520 66 0 0.0 1.0 0.00 0.00 0.00 60 1017.4
20260510005019 66 0 0.0 4.0 0.00 0.00 0.00 60 1017.4
20260510004537 67 0 0.0 4.0 0.00 0.00 0.00 58 1017.4
20260510004019 67 288 0.0 2.0 0.00 0.00 0.00 60 1017.5
20260510003519 67 0 0.0 2.0 0.00 0.00 0.00 59 1017.6
20260510003051 67 0 0.0 2.0 0.00 0.00 0.00 57 1017.6
20260510002520 67 0 0.0 6.0 0.00 0.00 0.00 58 1017.7
20260510002023 67 0 0.0 6.0 0.00 0.00 0.00 57 1017.7
20260510001539 67 0 1.0 6.0 0.00 0.00 0.00 56 1017.7
20260510001020 67 0 0.0 3.0 0.00 0.00 0.00 58 1017.8
20260510000520 67 0 0.0 1.0 0.00 0.00 0.00 57 1017.8
20260510000048 67 0 0.0 3.0 0.00 0.00 0.00 58 1017.9
20260509235520 67 0 0.0 3.0 0.00 0.00 0.00 57 1017.9
20260509235024 68 103 0.0 3.0 0.00 0.00 0.00 57 1017.9
20260509234550 67 90 0.0 7.0 0.00 0.00 0.00 58 1017.9
20260509234021 67 134 1.0 7.0 0.00 0.00 0.00 56 1018.0
20260509233520 68 0 0.0 4.0 0.00 0.00 0.00 55 1018.1
20260509233036 68 277 0.0 4.0 0.00 0.00 0.00 55 1018.2
20260509232519 68 74 1.0 4.0 0.00 0.00 0.00 55 1018.0
20260509232019 69 238 0.0 3.0 0.00 0.00 0.00 57 1018.1
20260509231543 68 0 1.0 3.0 0.00 0.00 0.00 55 1018.2
20260509231022 69 0 0.0 3.0 0.00 0.00 0.00 54 1018.3
20260509230519 69 126 0.0 3.0 0.00 0.00 0.00 55 1018.3
20260509230041 70 0 0.0 3.0 0.00 0.00 0.00 54 1018.4
20260509225521 69 0 0.0 3.0 0.00 0.00 0.00 58 1018.4
20260509225019 69 0 1.0 3.0 0.00 0.00 0.00 55 1018.3
20260509224538 68 0 0.0 4.0 0.00 0.00 0.00 54 1018.3
20260509224020 67 0 0.0 4.0 0.00 0.00 0.00 56 1018.3
20260509223520 67 64 0.0 2.0 0.00 0.00 0.00 54 1018.3
20260509223044 68 0 0.0 2.0 0.00 0.00 0.00 55 1018.3
20260509222519 68 315 0.0 7.0 0.00 0.00 0.00 54 1018.3
20260509222019 68 113 0.0 7.0 0.00 0.00 0.00 56 1018.4
20260509221541 69 57 1.0 4.0 0.00 0.00 0.00 54 1018.4
20260509221019 69 0 0.0 4.0 0.00 0.00 0.00 54 1018.4
20260509220519 69 0 0.0 2.0 0.00 0.00 0.00 56 1018.5
20260509220043 68 74 0.0 3.0 0.00 0.00 0.00 52 1018.5
20260509215521 68 139 0.0 3.0 0.00 0.00 0.00 54 1018.6
20260509215021 69 226 0.0 3.0 0.00 0.00 0.00 55 1018.7
20260509214535 69 184 0.0 3.0 0.00 0.00 0.00 55 1018.6
20260509214020 67 0 0.0 4.0 0.00 0.00 0.00 55 1018.8
20260509213519 67 0 1.0 4.0 0.00 0.00 0.00 56 1018.7
20260509213035 67 95 1.0 5.0 0.00 0.00 0.00 54 1018.7
20260509212520 67 104 1.0 5.0 0.00 0.00 0.00 55 1018.8
20260509212022 69 175 1.0 4.0 0.00 0.00 0.00 53 1018.9
20260509211540 68 0 0.0 3.0 0.00 0.00 0.00 56 1018.8
20260509211019 68 0 0.0 3.0 0.00 0.00 0.00 55 1018.8
20260509210522 68 0 0.0 3.0 0.00 0.00 0.00 54 1018.7
20260509210040 67 0 0.0 3.0 0.00 0.00 0.00 57 1018.9
20260509205520 66 119 0.0 4.0 0.00 0.00 0.00 56 1018.9
20260509205023 66 0 1.0 4.0 0.00 0.00 0.00 56 1018.9
20260509204538 67 69 1.0 4.0 0.00 0.00 0.00 56 1019.1
20260509204021 65 107 1.0 6.0 0.00 0.00 0.00 56 1019.1
20260509203519 65 0 1.0 6.0 0.00 0.00 0.00 56 1019.2
20260509203034 65 108 1.0 4.0 0.00 0.00 0.00 56 1019.3
20260509202520 67 65 1.0 4.0 0.00 0.00 0.00 56 1019.4
20260509202023 66 106 0.0 4.0 0.00 0.00 0.00 57 1019.4
20260509201535 66 0 1.0 4.0 0.00 0.00 0.00 56 1019.5
20260509201022 65 0 0.0 4.0 0.00 0.00 0.00 58 1019.6
20260509200525 65 0 1.0 4.0 0.00 0.00 0.00 56 1019.8
20260509200052 66 311 1.0 8.0 0.00 0.00 0.00 57 1020.0
20260509195530 64 0 0.0 8.0 0.00 0.00 0.00 58 1020.0
20260509195019 65 105 2.0 8.0 0.00 0.00 0.00 57 1020.0
20260509194539 65 0 0.0 4.0 0.00 0.00 0.00 59 1020.0
20260509194020 64 111 1.0 5.0 0.00 0.00 0.00 58 1020.0
20260509193520 63 0 1.0 5.0 0.00 0.00 0.00 60 1020.0
20260509193051 64 0 0.0 5.0 0.00 0.00 0.00 59 1020.1
20260509192519 64 311 1.0 5.0 0.00 0.00 0.00 60 1020.1
20260509192023 64 95 0.0 4.0 0.00 0.00 0.00 61 1020.2
20260509191535 63 300 0.0 4.0 0.00 0.00 0.00 61 1020.2
20260509191021 63 0 1.0 5.0 0.00 0.00 0.00 61 1020.3
20260509190519 63 0 2.0 6.0 0.00 0.00 0.00 61 1020.3
20260509190043 61 65 1.0 6.0 0.00 0.00 0.00 61 1020.3
20260509185521 62 84 0.0 6.0 0.00 0.00 0.00 59 1020.3
20260509185025 62 234 2.0 6.0 0.00 0.00 0.00 62 1020.4
20260509184550 61 90 1.0 4.0 0.00 0.00 0.00 61 1020.6
20260509184020 61 84 1.0 7.0 0.00 0.00 0.00 63 1020.5
20260509183520 61 291 2.0 7.0 0.00 0.00 0.00 64 1020.6
20260509183041 61 0 0.0 4.0 0.00 0.00 0.00 63 1020.5
20260509182521 61 73 1.0 6.0 0.00 0.00 0.00 61 1020.6
20260509182019 61 0 1.0 6.0 0.00 0.00 0.00 64 1020.8
20260509181545 60 0 0.0 4.0 0.00 0.00 0.00 63 1020.6
20260509181024 61 307 0.0 4.0 0.00 0.00 0.00 64 1020.6
20260509180520 60 0 0.0 3.0 0.00 0.00 0.00 64 1020.7
20260509180039 60 0 1.0 3.0 0.00 0.00 0.00 65 1020.7
20260509175521 58 98 1.0 4.0 0.00 0.00 0.00 65 1020.7
20260509175022 59 63 1.0 6.0 0.00 0.00 0.00 66 1020.7
20260509174535 59 109 2.0 6.0 0.00 0.00 0.00 65 1020.8
20260509174023 59 110 1.0 4.0 0.00 0.00 0.00 66 1020.7
20260509173521 58 110 1.0 4.0 0.00 0.00 0.00 65 1020.7
20260509173049 58 256 0.0 4.0 0.00 0.00 0.00 66 1020.7
20260509172520 58 92 1.0 4.0 0.00 0.00 0.00 65 1020.7
20260509172021 58 0 1.0 4.0 0.00 0.00 0.00 65 1020.6
20260509171545 58 0 0.0 3.0 0.00 0.00 0.00 68 1020.8
20260509171019 57 0 0.0 4.0 0.00 0.00 0.00 67 1020.8
20260509170521 57 0 0.0 4.0 0.00 0.00 0.00 67 1020.8
20260509170041 57 83 1.0 4.0 0.00 0.00 0.00 67 1020.9
20260509165519 56 0 0.0 3.0 0.00 0.00 0.00 68 1021.0
20260509165019 56 101 0.0 4.0 0.00 0.00 0.00 70 1021.0
20260509164537 56 104 1.0 4.0 0.00 0.00 0.00 69 1021.1
20260509164020 56 0 1.0 4.0 0.00 0.00 0.00 69 1021.1
20260509163519 56 0 0.0 3.0 0.00 0.00 0.00 71 1021.2
20260509163045 55 0 1.0 3.0 0.00 0.00 0.00 71 1021.3
20260509162522 55 0 0.0 3.0 0.00 0.00 0.00 72 1021.4
20260509162020 55 0 0.0 3.0 0.00 0.00 0.00 73 1021.5
20260509161541 55 85 0.0 3.0 0.00 0.00 0.00 73 1021.6
20260509161021 54 0 0.0 3.0 0.00 0.00 0.00 74 1021.8
20260509160520 54 0 0.0 3.0 0.00 0.00 0.00 76 1021.9
20260509160039 54 0 0.0 3.0 0.00 0.00 0.00 75 1021.8
20260509155520 53 0 0.0 4.0 0.00 0.00 0.00 76 1021.8
20260509155018 53 139 1.0 4.0 0.00 0.00 0.00 76 1021.8
20260509154543 53 0 0.0 3.0 0.00 0.00 0.00 77 1021.8
20260509154020 52 103 0.0 1.0 0.00 0.00 0.00 79 1021.8
20260509153519 52 0 0.0 1.0 0.00 0.00 0.00 79 1021.8
20260509153038 52 0 0.0 3.0 0.00 0.00 0.00 80 1021.8
20260509152519 52 0 0.0 3.0 0.00 0.00 0.00 79 1021.9
20260509152022 51 121 0.0 3.0 0.00 0.00 0.00 80 1021.8
20260509151535 50 117 0.0 2.0 0.00 0.00 0.00 81 1021.9
20260509151021 50 0 0.0 2.0 0.00 0.00 0.00 83 1021.9
20260509150521 49 0 0.0 2.0 0.00 0.00 0.00 87 1022.1
20260509145521 49 0 0.0 0.0 0.00 0.00 0.00 88 1022.2
20260509145021 48 0 0.0 0.0 0.00 0.00 0.00 89 1022.3
20260509144622 48 0 0.0 0.0 0.00 0.00 0.00 89 1022.3
20260509144019 47 0 0.0 0.0 0.00 0.00 0.00 90 1022.1
20260509143524 47 0 0.0 0.0 0.00 0.00 0.00 91 1022.3
20260509143046 46 0 0.0 0.0 0.00 0.00 0.00 91 1022.4
20260509142521 46 0 0.0 0.0 0.00 0.00 0.00 92 1022.4
20260509142019 46 0 0.0 0.0 0.00 0.00 0.00 91 1022.5
20260509141542 46 0 0.0 0.0 0.00 0.00 0.00 91 1022.5
20260509141022 45 0 0.0 0.0 0.00 0.00 0.00 92 1022.6
20260509140519 45 0 0.0 0.0 0.00 0.00 0.00 92 1022.6
20260509140043 45 0 0.0 0.0 0.00 0.00 0.00 92 1022.7
20260509135520 45 0 0.0 0.0 0.00 0.00 0.00 92 1022.7
20260509135019 45 0 0.0 0.0 0.00 0.00 0.00 92 1022.7
20260509134543 44 0 0.0 0.0 0.00 0.00 0.00 92 1022.7
20260509134020 45 0 0.0 0.0 0.00 0.00 0.00 91 1022.8
20260509133523 45 0 0.0 0.0 0.00 0.00 0.00 91 1022.7
20260509133041 45 0 0.0 0.0 0.00 0.00 0.00 91 1022.6
20260509132520 45 0 0.0 0.0 0.00 0.00 0.00 92 1022.4
20260509132022 45 0 0.0 0.0 0.00 0.00 0.00 92 1022.4
20260509131542 44 0 0.0 0.0 0.00 0.00 0.00 92 1022.3
20260509131020 45 0 0.0 0.0 0.00 0.00 0.00 91 1022.3
20260509130520 45 0 0.0 0.0 0.00 0.00 0.00 91 1022.3
20260509130038 45 0 0.0 0.0 0.00 0.00 0.00 91 1022.2
20260509125521 46 0 0.0 0.0 0.00 0.00 0.00 90 1022.2
20260509125021 46 0 0.0 0.0 0.00 0.00 0.00 91 1022.1